[[{"header":{"parameterUnit":"m.s-1","parameterCategory":1,"la1":30.2991,"la2":30.254,"lo1":-89.0895,"lo2":-89.0444,"dy":0.0017,"dx":0.0017,"nx":28,"ny":28,"refTime":"2025-03-21T21:00:00:Z","depth":0,"parameterNumber":2,"parameterNumberName":"U-component_of_WINDS"},"data":[0,0,0,0,0,0,0,0,0,0,0,0,0,0,0,0,0,0,0,0,0,0,0,0,0,0,0,0,0,0,0,0,0,0,0,0,0,0,0,0,0,0,0,0,0,0,0,0,0,0,0,0,0,0,0,0,0,0,-1.4425,-1.4425,0,-1.4384,-1.4384,-1.4383,-1.4306,-1.4304,-1.4303,-1.4301,-1.4261,-1.4261,-1.4261,0,0,0,0,0,0,0,0,0,0,0,0,0,-1.4438,-1.4438,-1.4425,-1.4425,-1.4424,-1.4384,-1.4384,-1.4383,-1.4306,-1.4304,-1.4302,-1.4301,-1.4261,-1.4261,-1.4261,0,0,0,0,0,0,0,0,0,0,0,0,0,-1.4418,-1.4438,-1.4425,-1.4381,-1.4376,-1.4385,-1.4384,-1.4383,-1.4306,-1.4304,-1.4302,-1.43,-1.426,-1.4261,-1.4261,-1.431,0,0,-1.4263,-1.4263,0,0,0,0,0,0,0,0,-1.442,-1.4418,-1.4388,-1.4384,-1.4379,-1.4348,-1.4373,-1.4359,-1.4307,-1.4333,-1.4301,-1.4299,-1.4292,-1.4289,-1.4287,-1.4308,-1.4307,-1.4263,-1.4263,-1.4264,-1.4264,0,0,0,0,0,0,0,-1.4421,-1.4419,-1.4409,-1.4387,-1.4382,-1.4363,-1.4358,-1.437,-1.4326,-1.433,-1.4325,-1.4321,-1.4289,-1.4286,-1.4285,-1.4306,-1.4263,-1.4263,-1.4264,-1.4264,-1.4367,-1.4369,0,0,0,0,0,0,-1.4429,-1.4421,-1.441,-1.4408,-1.4394,-1.4365,-1.4359,-1.436,-1.4325,-1.4318,-1.4323,-1.4317,-1.4287,-1.4285,-1.4284,-1.4339,-1.4264,-1.4264,-1.4264,-1.4364,-1.4367,-1.437,0,0,0,0,0,0,-1.4429,-1.4428,-1.4412,-1.4413,-1.4409,-1.4367,-1.4369,-1.436,-1.4358,-1.4319,-1.4311,-1.4329,-1.4285,-1.4283,-1.4304,-1.4336,-1.4264,-1.4265,-1.4361,-1.4365,-1.4369,-1.4449,0,0,0,0,0,0,-1.443,-1.4429,-1.4446,-1.4414,-1.4409,-1.4433,-1.4371,-1.4361,-1.4359,-1.4351,-1.4323,-1.4316,-1.4283,-1.4304,-1.4305,-1.4336,-1.4265,-1.4358,-1.4363,-1.4367,-1.4444,-1.4455,-1.4465,0,0,0,0,0,-1.4431,-1.4471,-1.4448,-1.4447,-1.443,-1.4435,-1.4432,-1.4393,-1.4362,-1.4379,-1.4355,-1.4317,-1.4333,-1.4307,-1.4307,-1.4339,-1.4356,-1.4362,-1.4367,-1.4439,-1.4453,-1.4465,0,0,0,0,0,0,-1.4508,-1.4466,-1.444,-1.447,-1.4457,-1.4422,-1.4442,-1.441,-1.4405,-1.4398,-1.4351,-1.4345,-1.4373,-1.4358,-1.433,-1.4385,-1.4339,-1.4344,-1.4393,-1.4406,-1.4417,-1.442,-1.4266,0,0,0,0,0,-1.4529,-1.4536,-1.4498,-1.4529,-1.4524,-1.4485,-1.4485,-1.4456,-1.4441,-1.4435,-1.4411,-1.4398,-1.44,-1.4402,-1.4402,-1.4442,-1.4435,-1.4464,-1.4474,-1.4484,-1.4489,-1.451,-1.4522,-1.4388,-1.4388,-1.4388,0,0,-1.4572,-1.4549,-1.4556,-1.4544,-1.453,-1.4539,-1.448,-1.4491,-1.4498,-1.4436,-1.4455,-1.4438,-1.442,-1.4451,-1.4464,-1.444,-1.4525,-1.449,-1.4498,-1.4498,-1.4516,-1.4529,-1.4541,-1.4392,-1.4391,-1.439,0,0,-1.4654,-1.4638,-1.4661,-1.4649,-1.4629,-1.4603,-1.4609,-1.458,-1.4566,-1.4584,-1.4539,-1.4546,-1.455,-1.454,-1.4535,-1.4616,-1.4581,-1.4617,-1.4673,-1.4694,-1.4705,-1.4714,-1.4743,-1.4754,-1.4623,-1.4623,-1.4623,0,-1.4709,-1.472,-1.4678,-1.4693,-1.4689,-1.4635,-1.4659,-1.4649,-1.4631,-1.463,-1.4603,-1.4609,-1.4593,-1.4621,-1.4641,-1.4639,-1.4645,-1.4619,-1.4706,-1.4715,-1.4723,-1.475,-1.4761,-1.4627,-1.4627,-1.4626,-1.4626,0,-1.479,-1.4798,-1.482,-1.4803,-1.4802,-1.4822,-1.4784,-1.4788,-1.4761,-1.4738,-1.4758,-1.4737,-1.4732,-1.4737,-1.471,-1.4762,-1.4748,-1.4715,-1.4667,-1.4741,-1.4766,-1.4776,-1.4634,-1.4632,-1.4631,-1.463,0,0,-1.4917,-1.4879,-1.4888,-1.488,-1.4855,-1.4861,-1.4879,-1.4874,-1.4879,-1.4869,-1.4883,-1.4889,-1.4858,-1.4853,-1.4825,-1.4843,-1.4909,-1.4807,-1.4806,-1.4827,-1.4966,-1.4991,-1.5003,-1.4886,-1.4888,-1.4889,-1.4967,0,-1.4994,-1.5021,-1.4985,-1.5021,-1.5029,-1.4978,-1.4994,-1.4981,-1.4961,-1.4965,-1.4943,-1.4948,-1.4908,-1.4904,-1.492,-1.4898,-1.4936,-1.4892,-1.4899,-1.49,-1.4905,-1.5016,-1.5042,-1.5116,-1.4977,-1.4978,-1.498,0,-1.5085,-1.508,-1.5117,-1.5091,-1.5093,-1.5107,-1.5101,-1.5105,-1.509,-1.5074,-1.507,-1.5036,-1.5053,-1.5008,-1.5031,-1.5002,-1.5003,-1.4993,-1.4995,-1.4993,-1.4944,-1.5018,-1.5139,-1.515,-1.4994,-1.4993,-1.4992,0,-1.5175,-1.5177,-1.5199,-1.5194,-1.5164,-1.5176,-1.5165,-1.5147,-1.5147,-1.5142,-1.5142,-1.5139,-1.5137,-1.5136,-1.5103,-1.5073,-1.5131,-1.5083,-1.5118,-1.5119,-1.5132,-1.5131,-1.5255,-1.5134,-1.5134,-1.5134,-1.5133,0,-1.5264,-1.5288,-1.5239,-1.5253,-1.5279,-1.5239,-1.5266,-1.525,-1.5235,-1.5245,-1.5202,-1.5213,-1.5169,-1.5175,-1.515,-1.5173,-1.5173,-1.5161,-1.5154,-1.5164,-1.5166,-1.5164,-1.5158,-1.5137,-1.5136,-1.5135,-1.5135,0,-1.5367,-1.5336,-1.5357,-1.5327,-1.5321,-1.5342,-1.5317,-1.5329,-1.5307,-1.5321,-1.5322,-1.5287,-1.5293,-1.526,-1.526,-1.5243,-1.5279,-1.5263,-1.5283,-1.5278,-1.5316,-1.5313,-1.5442,-1.5457,-1.5327,-1.5329,-1.533,0,-1.5425,-1.5443,-1.5416,-1.542,-1.541,-1.5417,-1.5417,-1.5378,-1.538,-1.5366,-1.538,-1.5382,-1.5381,-1.5393,-1.5368,-1.5368,-1.5352,-1.5397,-1.5351,-1.5362,-1.5352,-1.5352,-1.5353,-1.5407,-1.5408,-1.5409,-1.541,0,-1.5532,-1.5516,-1.5517,-1.5514,-1.5515,-1.551,-1.5503,-1.5509,-1.5467,-1.5472,-1.5477,-1.5477,-1.5477,-1.548,-1.5475,-1.5464,-1.5431,-1.5426,-1.5434,-1.5444,-1.5456,-1.545,-1.5309,-1.5422,-1.5421,-1.542,-1.542,-1.5419,-1.5614,-1.5628,-1.5612,-1.5615,-1.5606,-1.56,-1.561,-1.559,-1.5594,-1.559,-1.5568,-1.5578,-1.5564,-1.5554,-1.5547,-1.5554,-1.5533,-1.5545,-1.5547,-1.5551,-1.5558,-1.5455,-1.5553,-1.5553,-1.5553,-1.5552,-1.5552,0,-1.5718,-1.5706,-1.5709,-1.5701,-1.5704,-1.5673,-1.5664,-1.5669,-1.5678,-1.5667,-1.5668,-1.5675,-1.5678,-1.5655,-1.5655,-1.5666,-1.5651,-1.5667,-1.5666,-1.5664,-1.5577,-1.557,-1.5679,-1.5679,-1.5679,-1.5679,-1.5679,-1.5679,-1.5773,-1.5795,-1.5777,-1.5795,-1.5782,-1.5791,-1.5788,-1.5784,-1.5775,-1.5785,-1.5787,-1.5772,-1.5757,-1.5756,-1.5758,-1.5751,-1.5753,-1.5775,-1.5763,-1.5682,-1.567,-1.5658,-1.5651,-1.5776,-1.5776,-1.5849,-1.585,-1.5851]},{"header":{"parameterUnit":"m.s-1","parameterCategory":1,"la1":30.2991,"la2":30.254,"lo1":-89.0895,"lo2":-89.0444,"dy":0.0017,"dx":0.0017,"nx":28,"ny":28,"refTime":"2025-03-21T21:00:00:Z","depth":0,"parameterNumber":3,"parameterNumberName":"V-component_of_WINDS"},"data":[0,0,0,0,0,0,0,0,0,0,0,0,0,0,0,0,0,0,0,0,0,0,0,0,0,0,0,0,0,0,0,0,0,0,0,0,0,0,0,0,0,0,0,0,0,0,0,0,0,0,0,0,0,0,0,0,0,0,2.5522,2.5522,0,2.5526,2.5526,2.5526,2.5578,2.558,2.5581,2.5582,2.5582,2.5581,2.558,0,0,0,0,0,0,0,0,0,0,0,0,0,2.5556,2.5555,2.5522,2.5522,2.5522,2.5526,2.5526,2.5526,2.5578,2.558,2.5581,2.5583,2.5583,2.5581,2.558,0,0,0,0,0,0,0,0,0,0,0,0,0,2.5548,2.5554,2.5522,2.5548,2.5551,2.5526,2.5526,2.5526,2.5578,2.558,2.5582,2.5584,2.5583,2.5581,2.558,2.5528,0,0,2.5574,2.5573,0,0,0,0,0,0,0,0,2.5549,2.5547,2.5544,2.5546,2.5549,2.5554,2.5538,2.5527,2.5577,2.5567,2.5582,2.5585,2.5571,2.557,2.5566,2.5528,2.5528,2.5574,2.5573,2.5572,2.5571,0,0,0,0,0,0,0,2.5549,2.5547,2.5523,2.5544,2.5547,2.5559,2.556,2.5536,2.5558,2.5568,2.5572,2.5572,2.5573,2.5568,2.5567,2.5528,2.5574,2.5572,2.5571,2.557,2.5448,2.5446,0,0,0,0,0,0,2.5546,2.5547,2.5523,2.5523,2.5554,2.5557,2.5558,2.555,2.5558,2.5561,2.557,2.5575,2.557,2.5569,2.5567,2.5507,2.5572,2.557,2.5569,2.545,2.5447,2.5445,0,0,0,0,0,0,2.5547,2.5544,2.5523,2.5536,2.5535,2.5554,2.5545,2.5549,2.5545,2.556,2.5564,2.5562,2.5572,2.557,2.5538,2.5507,2.5569,2.5568,2.5452,2.5449,2.5446,2.5386,0,0,0,0,0,0,2.5548,2.5544,2.5525,2.5536,2.5534,2.5494,2.5543,2.5548,2.5542,2.5547,2.5553,2.5556,2.5573,2.554,2.5536,2.5506,2.5566,2.5455,2.5451,2.5447,2.539,2.5381,2.5373,0,0,0,0,0,2.5549,2.5507,2.5524,2.552,2.5511,2.5492,2.5491,2.5513,2.5539,2.552,2.553,2.5556,2.5512,2.5536,2.5532,2.5501,2.5457,2.5452,2.5447,2.5394,2.5383,2.5373,0,0,0,0,0,0,2.549,2.5509,2.5527,2.5488,2.5488,2.5501,2.5477,2.55,2.5492,2.5497,2.5524,2.5525,2.5488,2.5492,2.5519,2.5452,2.5489,2.5483,2.545,2.5439,2.543,2.5429,2.5565,0,0,0,0,0,2.5473,2.5458,2.5474,2.5438,2.5437,2.5457,2.545,2.5467,2.5468,2.5468,2.5476,2.5474,2.546,2.545,2.5439,2.5392,2.5393,2.5369,2.536,2.5353,2.5346,2.5321,2.531,2.5429,2.5429,2.5429,0,0,2.5437,2.5445,2.5433,2.5426,2.5429,2.5411,2.5457,2.5436,2.5423,2.5464,2.5435,2.544,2.5441,2.5401,2.5384,2.5403,2.5314,2.5346,2.534,2.5338,2.5315,2.5304,2.5294,2.5426,2.5426,2.5427,0,0,2.5361,2.5366,2.5336,2.5338,2.5342,2.5356,2.5349,2.5358,2.5364,2.5335,2.5366,2.535,2.5326,2.5325,2.5321,2.5247,2.527,2.5242,2.5195,2.517,2.5161,2.5152,2.5124,2.5114,2.5237,2.5236,2.5236,0,2.5315,2.529,2.5318,2.5295,2.5291,2.533,2.5299,2.5299,2.5298,2.5293,2.5316,2.5286,2.5289,2.525,2.5232,2.5228,2.5219,2.5241,2.516,2.5152,2.5145,2.5118,2.5108,2.5233,2.5233,2.5234,2.5234,0,2.5233,2.5215,2.5191,2.519,2.5183,2.5156,2.5179,2.5168,2.5187,2.5198,2.5168,2.5174,2.5163,2.5156,2.5173,2.5118,2.513,2.5156,2.5193,2.5129,2.5105,2.5095,2.5228,2.5229,2.523,2.5231,0,0,2.5118,2.5134,2.5124,2.5125,2.5132,2.5119,2.5094,2.5085,2.5075,2.5074,2.5052,2.5032,2.5056,2.5052,2.5069,2.5048,2.4987,2.5076,2.5077,2.5058,2.4926,2.4905,2.4893,2.5004,2.5002,2.5001,2.4926,0,2.5044,2.5003,2.5027,2.4982,2.4966,2.5004,2.4982,2.4984,2.4994,2.4981,2.4992,2.4977,2.501,2.5008,2.4989,2.4999,2.4961,2.5005,2.4982,2.4981,2.4979,2.4881,2.4858,2.4787,2.4916,2.4915,2.4914,0,2.4951,2.4947,2.49,2.4911,2.4906,2.4886,2.488,2.4868,2.487,2.4879,2.4875,2.4899,2.4874,2.4913,2.4879,2.4908,2.4901,2.4905,2.4902,2.4899,2.4942,2.4873,2.4765,2.4754,2.4899,2.49,2.4901,0,2.487,2.4853,2.4823,2.4822,2.4834,2.4819,2.4824,2.4829,2.4822,2.4817,2.4813,2.4805,2.4799,2.4792,2.4812,2.4839,2.4775,2.4816,2.478,2.4779,2.4762,2.4763,2.465,2.4761,2.4761,2.4761,2.4762,0,2.4783,2.4752,2.4786,2.4767,2.4734,2.4763,2.4729,2.4738,2.4742,2.4725,2.4758,2.474,2.4769,2.4754,2.477,2.4739,2.4737,2.4742,2.4746,2.4738,2.4737,2.4731,2.4736,2.4759,2.4759,2.476,2.476,0,2.4685,2.4707,2.4677,2.4692,2.4695,2.467,2.4682,2.4665,2.4679,2.4656,2.4653,2.4673,2.4658,2.4678,2.4665,2.4675,2.4632,2.4644,2.4631,2.4634,2.4596,2.4598,2.4474,2.4459,2.4581,2.458,2.4579,0,2.4627,2.4605,2.4619,2.461,2.4613,2.4599,2.4593,2.4621,2.4613,2.4615,2.4597,2.4585,2.4576,2.455,2.4563,2.4553,2.4564,2.4521,2.4562,2.4555,2.4561,2.4561,2.4559,2.4512,2.451,2.4509,2.4508,0,2.4522,2.4534,2.4525,2.4519,2.4511,2.4508,2.4507,2.4498,2.4527,2.4516,2.4502,2.4496,2.4483,2.4469,2.4463,2.4467,2.4491,2.4496,2.4486,2.4476,2.4469,2.4471,2.4606,2.4498,2.4499,2.4499,2.45,2.45,2.4441,2.4423,2.443,2.4418,2.4421,2.4419,2.4404,2.4416,2.4405,2.4397,2.4415,2.4396,2.44,2.4394,2.4394,2.4379,2.4398,2.4385,2.4381,2.4377,2.437,2.4473,2.4379,2.4379,2.4379,2.4379,2.438,0,2.4336,2.4342,2.4332,2.433,2.4321,2.4348,2.4348,2.4338,2.4322,2.4324,2.4315,2.4298,2.4287,2.4299,2.429,2.4275,2.4286,2.4271,2.4271,2.4271,2.4355,2.4364,2.4262,2.4262,2.4262,2.4262,2.4262,2.4262,2.428,2.425,2.4263,2.4235,2.4242,2.4225,2.4223,2.4221,2.4223,2.4203,2.4194,2.4203,2.4209,2.42,2.419,2.4194,2.4188,2.4169,2.4177,2.4254,2.4266,2.4276,2.4284,2.4168,2.4168,2.4094,2.4093,2.4093]}]]